Wetbulb
60.36 60.28 60.54 61.10 61.41 61.47 61.39 60.59 59.82 60.17 59.84 58.26 57.40 57.15 56.83 55.20 54.01 52.96 53.27 53.18 52.48 52.37 50.29 49.09 46.26 41.35 42.88 41.83 42.22 41.81 40.78 38.78 36.58 35.07 37.96 36.29 34.91 34.47 33.41 34.68 34.45 33.46 34.49
59.93 59.59 59.90 60.69 61.11 60.71 60.67 59.96 59.94 59.50 58.89 57.87 57.27 56.38 55.68 54.66 53.47 51.68 51.25 50.78 50.42 49.50 48.15 46.11 44.79 40.91 41.19 40.61 40.31 39.71 36.67 36.34 36.93 34.85 34.85 34.16 34.18 34.91 34.94 33.71 31.91 31.85 32.29
59.21 58.86 59.09 59.49 59.91 60.12 59.87 59.73 59.30 59.13 58.27 57.46 56.88 55.43 53.94 53.12 52.24 51.30 51.14 50.49 47.76 48.12 46.76 44.25 43.83 39.77 38.45 36.77 36.73 37.70 35.45 34.57 35.50 34.39 32.22 33.65 32.58 32.33 31.69 31.89 32.02 31.98 30.53
58.50 58.08 57.65 58.02 58.86 59.00 59.41 59.26 58.70 58.30 57.42 55.78 55.55 54.39 53.54 52.61 51.74 50.49 49.42 49.38 46.15 45.09 43.62 43.47 40.56 38.85 38.21 35.68 35.61 34.94 33.83 32.44 32.38 32.93 31.16 30.67 31.68 29.72 31.21 30.48 28.48 29.70 29.66
52.14 54.12 55.12 57.06 58.24 58.50 58.62 58.63 57.09 56.39 56.65 55.72 54.37 53.00 52.72 51.52 50.25 49.28 47.04 45.25 42.61 41.97 39.11 39.79 38.56 37.75 37.14 37.77 36.09 34.24 32.20 31.64 30.67 30.52 30.28 30.47 29.51 27.01 27.99 29.55 29.33 29.43 29.12
46.22 45.66 46.11 47.32 47.71 50.04 54.45 56.11 55.09 54.57 54.30 53.91 52.09 51.16 50.71 49.72 45.52 43.25 43.58 42.45 39.81 38.33 37.03 37.40 36.76 33.67 35.80 36.13 35.91 35.61 34.41 31.90 30.37 30.60 30.58 29.69 29.04 29.64 28.86 28.50 29.14 27.87 29.03
41.81 41.84 41.46 42.56 43.09 42.43 42.94 44.89 45.30 47.32 47.68 48.29 48.18 48.40 47.69 47.48 42.16 41.83 40.34 40.02 38.37 38.67 38.15 36.08 34.11 34.04 33.04 33.40 34.93 35.21 34.69 35.97 35.16 32.94 31.03 30.59 29.88 29.83 29.55 27.13 27.34 28.18 28.60
35.84 36.67 36.41 37.24 38.67 38.94 39.59 40.00 41.18 41.47 42.43 42.25 41.78 41.92 41.81 41.95 41.38 41.16 38.64 38.93 38.11 37.50 37.52 36.23 35.35 33.04 32.89 32.10 31.99 31.50 30.94 31.90 32.05 31.12 32.81 31.43 31.97 30.78 30.45 29.72 28.54 27.61 24.67
31.74 32.35 32.63 34.12 35.84 37.48 37.94 38.63 38.85 37.99 38.10 38.29 37.54 37.70 37.45 38.06 39.99 40.03 38.30 35.73 35.44 35.24 35.27 35.38 34.90 33.14 33.36 34.13 31.44 30.49 30.09 30.36 33.34 33.24 32.29 32.60 32.40 31.56 28.85 27.93 27.14 27.35 26.51
29.35 30.14 31.90 33.58 34.89 36.07 37.00 37.35 36.85 36.55 35.64 35.58 35.57 36.17 34.96 37.04 38.53 39.33 38.51 34.99 34.25 33.70 33.22 32.96 32.61 33.39 33.56 34.80 31.49 31.19 30.06 30.30 30.50 31.67 31.60 32.01 32.29 31.03 29.98 28.92 28.31 27.88 26.32
28.18 29.73 31.85 32.60 33.05 34.64 35.51 36.19 35.66 35.77 35.14 34.92 33.87 33.51 34.14 34.84 36.21 38.91 38.58 34.58 34.24 32.79 32.11 31.16 31.88 34.37 34.51 35.08 34.03 32.34 32.47 31.85 31.61 30.73 29.49 27.80 28.42 30.04 28.01 27.06 27.07 28.39 25.73
27.98 30.72 31.64 32.31 32.36 32.97 33.38 34.25 34.03 33.83 33.47 33.68 33.45 33.61 32.53 32.64 34.42 38.51 38.45 36.32 35.92 33.62 32.16 31.22 31.70 34.75 35.11 35.41 33.35 33.93 34.26 31.77 30.53 28.23 26.79 25.93 26.32 27.84 28.96 27.75 26.06 25.80 25.67
29.79 30.50 31.39 32.11 32.25 32.94 32.80 33.12 34.06 33.67 33.67 33.82 32.67 33.24 33.28 31.42 32.47 37.53 38.25 36.43 35.99 33.68 32.64 32.72 33.45 34.97 35.16 35.31 33.91 33.87 30.87 30.33 28.77 27.08 27.29 26.92 28.63 29.00 26.48 24.34 23.75 23.51 23.10
28.40 29.43 30.65 30.86 31.41 32.70 33.59 33.40 33.38 33.73 34.05 33.43 33.25 32.93 32.64 31.75 32.13 33.35 35.38 35.51 34.28 33.32 33.18 32.81 33.77 34.23 34.77 34.32 32.18 31.89 30.65 30.21 29.63 28.64 28.81 28.88 26.63 25.88 26.15 26.46 25.22 23.50 24.52
27.05 27.94 28.73 29.60 30.51 31.38 32.40 32.97 32.85 33.87 34.01 33.03 33.74 33.94 33.21 32.78 33.20 34.36 34.92 33.61 33.50 33.08 32.05 31.86 31.89 31.83 31.59 31.83 32.15 31.06 29.81 29.73 29.95 30.19 28.20 26.70 26.81 26.40 24.98 24.24 23.52 22.25 23.89
26.41 26.82 26.80 27.31 28.65 29.58 30.37 31.69 34.67 34.72 35.43 35.79 36.23 35.79 34.14 35.66 36.36 35.31 36.34 35.55 34.59 34.04 31.87 31.03 30.47 30.82 30.67 31.19 30.94 30.07 30.14 29.92 30.01 29.71 29.14 27.80 25.86 25.27 23.30 23.24 22.87 22.65 21.76
23.07 24.37 25.65 26.18 26.86 27.74 28.31 29.45 29.67 32.96 34.47 34.54 34.37 35.15 35.47 35.20 35.71 36.20 36.24 35.66 34.79 34.19 31.79 31.40 30.90 30.94 30.83 30.98 30.74 29.91 28.24 28.84 29.55 28.84 27.92 26.85 25.63 24.67 22.57 21.09 20.51 19.93 18.80
23.49 22.22 24.65 25.15 25.81 26.79 27.43 28.74 29.21 29.84 29.57 29.42 30.64 31.32 33.96 34.94 35.03 35.19 36.20 34.46 31.81 32.13 31.87 31.45 31.24 31.43 31.03 30.24 28.58 25.78 23.58 24.22 25.16 24.46 23.92 23.67 23.19 21.35 20.30 19.67 19.26 18.03 17.51
23.79 24.61 24.30 25.47 25.59 25.33 27.41 28.10 28.35 28.56 28.48 28.52 29.21 29.32 28.38 30.14 29.72 30.85 31.48 29.20 27.19 26.33 26.95 26.72 27.85 27.46 26.49 25.52 24.34 23.64 22.76 21.65 20.65 19.57 18.98 18.50 18.95 18.77 16.87 16.17 14.73 12.87 13.45
24.07 20.82 20.73 24.71 24.98 25.35 25.95 26.10 25.79 25.67 25.15 24.84 24.88 24.86 25.91 24.56 21.97 20.60 21.50 22.40 21.49 20.62 20.49 19.81 19.95 20.11 20.06 19.86 19.11 18.02 17.35 17.50 16.87 16.44 15.49 14.96 15.41 15.91 13.43 12.53 13.25 12.27 11.92
23.79 24.07 18.25 24.89 24.15 23.98 23.98 23.40 23.28 22.57 20.93 20.05 19.64 22.69 21.96 17.54 15.68 14.95 15.71 15.58 17.41 17.64 17.21 16.67 16.18 15.77 16.11 16.51 17.05 16.42 15.69 15.06 14.37 13.51 13.28 12.09 12.21 11.02 11.77 11.88 10.22 9.48 9.69
22.28 22.46 22.29 21.38 22.10 22.17 22.19 22.36 21.87 20.87 19.77 18.70 17.95 17.60 19.21 16.41 14.32 13.16 12.51 11.91 12.51 13.21 13.60 13.37 12.33 12.71 14.02 14.84 15.00 14.49 13.42 12.38 12.47 12.39 11.23 10.30 10.47 9.79 10.42 10.14 9.99 9.06 8.26
21.52 21.82 21.49 20.71 20.80 18.60 20.24 19.67 19.42 19.17 17.86 16.92 16.20 14.86 14.01 12.59 11.91 10.77 9.77 10.05 10.79 11.39 12.19 12.01 10.82 9.88 10.34 10.73 12.49 14.28 12.94 12.17 12.20 12.06 10.53 9.97 10.01 9.56 10.65 10.30 8.89 8.51 8.87
20.04 20.08 19.61 19.12 18.49 18.91 18.75 17.98 17.02 14.60 15.63 15.28 14.48 13.37 12.32 11.75 11.05 10.36 10.36 10.29 10.26 10.30 10.60 10.04 9.80 9.14 8.61 8.69 9.12 9.61 9.58 9.46 10.07 10.44 11.02 10.68 9.31 7.85 8.78 8.36 8.58 7.58 8.12
17.71 17.99 17.48 17.49 17.54 17.40 17.31 16.36 15.68 15.06 14.36 14.00 13.06 12.30 11.87 11.42 10.78 10.81 11.06 10.74 10.24 9.99 9.44 9.58 9.71 9.46 8.94 8.62 8.62 8.66 8.59 7.48 7.90 7.95 8.83 10.45 9.99 8.47 8.16 8.41 8.71 9.25 8.28
14.78 15.06 15.01 15.55 15.70 15.76 15.78 14.84 13.47 12.90 12.44 11.88 11.58 11.20 10.72 10.19 10.47 10.58 10.06 9.73 9.31 8.97 8.93 8.99 8.88 8.62 8.98 9.38 9.21 8.60 7.73 9.01 7.82 6.97 9.03 9.78 9.84 9.89 8.98 9.03 8.87 9.03 9.01
MSLP
1008.43 1008.90 1009.51 1009.76 1010.28 1010.99 1011.28 1011.63 1011.98 1012.62 1013.21 1013.89 1014.31 1015.02 1015.47 1016.06 1016.83 1017.40 1017.76 1018.28 1018.62 1018.97 1019.63 1020.17 1020.93 1021.62 1021.87 1022.92 1023.02 1023.78 1023.89 1024.41 1025.01 1026.00 1026.81 1027.48 1028.02 1028.70 1029.04 1029.11 1029.46 1029.50 1029.42
1007.80 1008.34 1008.80 1009.37 1009.75 1010.17 1010.33 1010.77 1011.33 1011.79 1012.52 1012.98 1013.50 1014.07 1014.51 1014.99 1015.58 1016.09 1016.48 1016.82 1017.30 1017.92 1018.47 1019.41 1020.03 1020.80 1021.50 1021.97 1022.26 1023.16 1023.70 1024.08 1024.56 1025.40 1026.49 1027.09 1027.35 1028.14 1028.29 1028.61 1029.30 1029.25 1029.20
1007.85 1008.06 1008.58 1008.91 1009.18 1009.42 1009.85 1010.51 1010.92 1011.13 1011.71 1012.37 1012.81 1013.16 1013.48 1013.87 1014.42 1014.79 1015.17 1015.61 1015.96 1016.37 1017.24 1017.92 1018.61 1019.49 1020.47 1021.15 1022.06 1022.51 1023.17 1023.78 1024.26 1024.71 1025.89 1026.60 1027.20 1028.05 1028.26 1028.46 1028.69 1028.80 1028.65
1008.08 1008.15 1008.50 1008.72 1008.90 1009.13 1009.55 1009.97 1010.30 1010.58 1011.09 1011.59 1011.92 1012.27 1012.61 1013.06 1013.41 1013.73 1014.11 1014.59 1015.34 1015.95 1016.10 1016.68 1017.45 1018.45 1019.13 1020.09 1020.70 1021.49 1022.40 1023.38 1024.03 1024.37 1025.21 1025.91 1026.56 1027.59 1027.76 1027.89 1028.49 1028.47 1028.25
1008.98 1008.96 1009.01 1009.02 1008.87 1008.96 1009.25 1009.51 1009.83 1010.21 1010.59 1010.73 1011.07 1011.64 1012.12 1012.32 1012.56 1013.30 1013.73 1013.83 1014.54 1015.35 1015.87 1016.53 1016.25 1017.04 1018.20 1019.23 1019.69 1020.73 1021.91 1022.92 1023.59 1024.06 1024.84 1025.46 1026.03 1026.93 1027.19 1027.29 1027.65 1027.79 1027.85
1010.55 1010.53 1010.30 1010.09 1009.82 1009.57 1009.24 1009.01 1009.15 1009.58 1010.00 1010.18 1010.25 1010.76 1011.26 1011.61 1011.60 1011.86 1012.57 1013.09 1013.32 1014.22 1015.07 1015.60 1016.97 1016.62 1017.76 1018.45 1019.41 1019.97 1020.74 1021.61 1022.92 1023.22 1023.96 1024.69 1024.89 1025.56 1026.57 1026.79 1027.09 1027.49 1027.75
1011.92 1011.85 1011.55 1011.27 1010.78 1010.52 1010.42 1010.16 1009.95 1010.04 1010.05 1009.91 1009.96 1010.30 1010.62 1010.90 1011.05 1011.28 1011.84 1012.55 1012.77 1013.18 1013.87 1014.54 1015.63 1016.02 1017.34 1018.51 1019.27 1019.89 1020.69 1021.13 1021.46 1022.01 1022.75 1023.47 1023.86 1024.43 1025.90 1026.48 1026.62 1026.73 1027.24
1013.22 1013.05 1012.94 1012.70 1012.06 1011.27 1010.80 1010.79 1010.83 1010.85 1010.85 1010.62 1010.62 1010.46 1010.53 1010.51 1010.83 1010.89 1011.64 1011.93 1012.36 1012.77 1013.92 1014.05 1014.39 1015.56 1016.60 1017.73 1018.91 1019.50 1020.28 1020.92 1021.44 1021.84 1022.30 1022.62 1023.08 1024.09 1024.74 1025.25 1026.07 1026.77 1027.44
1014.29 1013.95 1013.77 1013.26 1012.75 1012.02 1011.09 1011.09 1011.16 1011.36 1011.43 1011.23 1010.96 1010.74 1010.64 1011.16 1010.98 1010.96 1011.21 1011.79 1012.44 1013.26 1013.26 1014.26 1014.49 1015.14 1015.91 1016.89 1017.98 1018.80 1019.87 1020.64 1021.33 1022.16 1022.53 1022.70 1023.39 1023.90 1024.98 1025.23 1026.11 1026.61 1027.03
1015.69 1015.09 1014.45 1013.84 1013.29 1012.37 1011.27 1011.28 1011.54 1011.68 1011.37 1011.49 1011.03 1010.86 1010.01 1010.44 1010.38 1010.93 1010.70 1011.95 1012.33 1012.57 1013.67 1013.69 1014.41 1014.94 1015.68 1016.58 1017.27 1018.25 1019.21 1020.11 1021.02 1022.16 1022.51 1022.94 1023.65 1024.18 1024.80 1024.91 1025.66 1025.95 1026.51
1016.73 1016.05 1015.27 1014.70 1014.11 1013.50 1012.68 1011.97 1011.96 1011.62 1011.71 1011.27 1011.27 1010.85 1010.35 1011.09 1010.72 1010.61 1010.91 1011.67 1012.12 1013.19 1013.04 1013.25 1014.02 1014.51 1014.83 1015.71 1016.77 1017.29 1018.21 1019.38 1020.79 1021.77 1022.35 1023.04 1023.90 1024.25 1024.76 1025.17 1025.52 1025.63 1026.04
1016.74 1015.98 1015.36 1014.76 1014.12 1013.35 1012.85 1012.52 1012.39 1012.22 1011.69 1011.38 1011.16 1010.65 1010.53 1010.64 1010.83 1010.89 1010.98 1011.13 1011.76 1012.09 1012.31 1012.90 1013.72 1013.82 1014.66 1015.43 1016.57 1017.52 1018.23 1019.15 1020.53 1021.58 1022.35 1023.16 1023.44 1023.93 1024.36 1024.85 1025.52 1025.84 1026.08
1017.27 1016.59 1015.74 1014.88 1014.24 1013.77 1013.39 1012.89 1012.46 1012.00 1011.68 1011.42 1011.34 1011.04 1010.91 1011.07 1011.05 1010.68 1010.66 1011.04 1011.36 1011.93 1012.25 1012.26 1013.28 1014.28 1014.74 1015.94 1016.42 1017.57 1018.15 1018.82 1020.22 1021.17 1021.79 1022.37 1022.87 1023.46 1024.29 1025.12 1025.88 1026.18 1026.65
1017.72 1016.90 1016.12 1015.46 1014.77 1014.12 1013.51 1012.95 1012.45 1011.97 1011.54 1011.24 1011.06 1010.92 1010.69 1010.64 1010.58 1010.65 1011.07 1011.56 1011.55 1011.71 1012.11 1012.97 1013.57 1014.53 1015.31 1016.12 1017.06 1017.74 1018.08 1018.77 1019.42 1020.12 1020.98 1021.84 1022.80 1023.59 1024.24 1024.68 1025.36 1025.88 1026.17
1018.47 1017.58 1016.73 1016.06 1015.34 1014.61 1014.05 1013.52 1012.98 1012.48 1012.10 1011.58 1011.08 1010.85 1010.72 1010.43 1010.09 1010.23 1010.49 1011.13 1011.41 1011.60 1011.82 1012.74 1013.88 1014.59 1015.29 1016.20 1017.00 1017.36 1018.05 1018.91 1019.38 1019.97 1020.73 1021.59 1022.32 1023.06 1023.87 1024.60 1025.19 1025.63 1025.95
1018.85 1018.04 1017.38 1016.64 1015.85 1015.15 1014.43 1013.60 1013.02 1012.57 1011.97 1011.43 1010.92 1010.64 1010.30 1010.10 1009.96 1010.04 1010.06 1010.60 1011.24 1011.84 1012.29 1012.86 1013.14 1013.99 1014.84 1015.74 1016.51 1017.13 1017.81 1018.53 1019.44 1019.98 1020.57 1021.37 1022.12 1023.18 1024.08 1024.65 1025.00 1025.39 1025.96
1019.92 1019.06 1018.17 1017.44 1016.79 1016.08 1015.22 1014.29 1013.34 1012.64 1012.35 1011.98 1011.62 1010.94 1010.47 1010.19 1009.79 1009.87 1010.22 1010.53 1011.22 1012.05 1012.42 1012.98 1013.49 1014.20 1015.03 1015.73 1016.16 1016.74 1017.60 1018.38 1019.17 1020.13 1020.89 1021.69 1022.32 1023.00 1023.92 1024.61 1025.24 1025.58 1026.13
1020.11 1019.52 1018.85 1018.13 1017.48 1016.65 1016.02 1015.32 1014.63 1013.88 1013.25 1012.90 1012.49 1011.91 1011.10 1010.47 1010.26 1010.17 1010.51 1011.31 1012.17 1012.66 1013.12 1013.66 1014.10 1014.52 1015.19 1015.67 1016.35 1017.09 1018.33 1018.98 1019.92 1020.74 1021.47 1022.32 1022.87 1023.56 1024.00 1024.79 1025.34 1025.77 1026.16
1020.30 1019.65 1019.17 1018.46 1017.90 1017.27 1016.82 1016.34 1015.82 1015.24 1014.64 1014.36 1013.95 1013.06 1013.10 1012.26 1012.25 1012.10 1011.93 1012.19 1012.86 1013.76 1014.35 1014.93 1015.40 1015.66 1016.13 1016.56 1017.27 1017.97 1019.02 1019.89 1020.64 1021.52 1022.26 1022.79 1023.42 1023.84 1024.50 1025.28 1025.92 1026.40 1026.54
1020.39 1020.18 1019.62 1018.86 1018.24 1017.67 1017.33 1017.15 1016.73 1016.40 1016.14 1016.09 1015.61 1015.21 1014.72 1014.28 1014.39 1014.69 1014.61 1014.54 1014.72 1015.35 1015.92 1016.29 1016.81 1017.08 1017.64 1018.12 1018.79 1019.63 1020.48 1021.08 1021.74 1022.29 1022.90 1023.42 1023.90 1024.51 1025.18 1025.75 1026.32 1026.66 1026.86
1020.94 1020.14 1020.10 1019.47 1019.14 1018.75 1018.48 1018.18 1017.75 1017.63 1017.66 1017.61 1017.58 1017.20 1016.76 1016.59 1017.06 1017.12 1016.89 1016.88 1016.84 1017.00 1017.39 1017.93 1018.37 1018.61 1019.03 1019.80 1020.38 1020.86 1021.36 1022.01 1022.61 1022.98 1023.51 1024.08 1024.63 1025.14 1025.49 1026.13 1026.72 1027.02 1027.29
1021.55 1021.11 1020.70 1020.24 1019.86 1019.65 1019.46 1019.23 1019.08 1018.88 1018.94 1018.93 1018.85 1018.95 1018.45 1018.47 1018.65 1018.82 1018.96 1019.05 1019.07 1019.25 1019.49 1019.62 1019.78 1020.33 1020.70 1020.97 1021.25 1021.76 1022.21 1022.72 1023.06 1023.44 1024.09 1024.58 1025.00 1025.52 1025.97 1026.49 1026.88 1027.27 1027.60
1022.10 1021.69 1021.39 1021.12 1020.73 1020.37 1020.27 1020.14 1019.99 1019.90 1019.91 1020.01 1020.04 1019.96 1020.10 1020.14 1020.47 1020.59 1020.66 1020.75 1020.77 1020.83 1021.11 1021.09 1021.12 1021.44 1021.92 1022.23 1022.50 1022.68 1022.87 1023.39 1023.67 1024.13 1024.65 1024.86 1025.20 1025.85 1026.28 1026.60 1027.12 1027.52 1027.58
1022.65 1022.19 1021.86 1021.64 1021.46 1021.25 1021.10 1021.01 1020.98 1020.98 1020.88 1020.93 1021.09 1021.28 1021.32 1021.47 1021.64 1021.76 1021.86 1021.96 1021.96 1022.10 1022.15 1022.16 1022.37 1022.59 1022.82 1023.20 1023.35 1023.49 1023.78 1024.02 1024.49 1024.71 1024.74 1024.96 1025.49 1026.03 1026.44 1026.63 1026.96 1027.27 1027.25
1023.39 1022.99 1022.59 1022.35 1022.13 1021.90 1021.82 1021.71 1021.52 1021.62 1021.79 1021.74 1021.82 1022.15 1022.45 1022.49 1022.54 1022.65 1022.78 1022.81 1022.90 1022.85 1023.10 1023.24 1023.30 1023.40 1023.56 1023.59 1023.86 1024.08 1024.38 1024.76 1024.96 1025.21 1025.19 1025.33 1025.72 1025.99 1026.43 1026.49 1026.78 1026.87 1026.77
1023.30 1023.26 1023.22 1023.01 1022.78 1022.64 1022.57 1022.51 1022.33 1022.34 1022.53 1022.70 1022.75 1022.66 1022.85 1023.13 1023.31 1023.41 1023.45 1023.52 1023.71 1023.82 1023.91 1024.00 1023.93 1023.98 1024.19 1024.35 1024.37 1024.42 1024.75 1024.92 1025.00 1025.08 1025.33 1025.56 1025.60 1025.94 1026.11 1026.20 1026.29 1026.34 1026.23
Wind_Speed
17 17 17 17 17 16 15 16 17 16 17 17 17 17 17 17 16 16 16 15 17 16 12 13 13 9 8 7 6 6 6 3 4 3 2 5 8 9 7 7 6 8 6
15 15 16 15 16 16 18 17 16 17 15 16 16 16 16 16 17 18 19 17 18 17 15 14 14 9 11 8 7 9 7 5 3 4 4 4 4 9 8 8 6 5 6
14 13 14 14 15 17 17 15 14 15 15 15 15 15 16 16 17 18 18 18 18 18 16 16 15 14 12 8 7 8 6 4 3 3 4 2 3 6 4 5 6 7 5
9 11 11 11 14 14 14 14 14 14 14 15 15 16 15 16 16 17 17 16 15 14 14 16 14 14 13 13 11 11 8 7 4 3 3 3 3 3 3 4 5 5 4
8 5 4 5 10 12 12 12 12 12 14 14 13 13 14 13 11 14 13 12 13 13 12 11 12 13 14 12 9 11 11 8 5 5 3 3 4 4 6 4 4 3 3
10 10 8 8 8 7 5 10 11 12 13 12 12 13 14 11 14 17 17 15 15 15 13 11 9 11 14 16 15 16 16 14 10 7 4 4 5 4 4 4 4 3 3
10 10 10 9 8 6 6 6 6 4 4 5 6 8 11 11 12 17 17 8 10 13 13 13 10 9 11 10 14 14 12 12 10 10 10 6 5 8 6 5 4 3 3
10 10 9 10 8 6 6 6 5 4 4 4 5 7 5 6 13 18 19 8 8 7 10 13 15 13 13 12 11 10 9 8 6 6 6 6 4 7 7 5 5 4 2
13 11 10 10 10 8 6 6 5 4 5 4 4 4 5 6 11 18 14 7 8 10 8 10 11 12 18 22 14 12 9 6 6 6 5 7 9 13 8 6 4 4 3
12 12 11 10 9 11 10 9 4 3 5 4 6 6 4 7 10 14 15 5 7 6 7 8 11 12 21 22 13 12 11 10 10 6 5 7 8 10 14 2 5 5 3
10 9 9 9 8 6 6 5 5 6 6 5 5 2 1 6 7 15 18 8 6 7 7 7 8 20 23 24 18 12 11 11 13 7 6 5 4 5 5 4 4 4 4
11 11 10 10 8 7 8 6 3 4 4 5 5 6 1 1 6 13 19 13 12 8 9 7 7 22 21 23 16 14 16 14 8 7 6 6 5 5 5 5 4 3 2
9 9 10 10 10 8 7 6 5 4 4 5 3 4 4 3 3 10 16 17 18 7 5 11 14 16 19 15 16 19 16 9 8 8 7 5 4 5 6 6 5 4 3
9 10 9 9 11 9 7 6 6 5 4 3 4 4 2 2 3 2 6 8 10 6 11 8 11 11 11 10 10 12 6 7 9 8 7 6 5 6 6 5 4 4 3
9 10 10 8 10 9 7 7 6 5 5 6 5 4 4 5 5 8 7 5 4 6 10 9 9 8 8 8 7 8 7 6 6 6 7 7 7 6 5 4 4 3 3
9 8 8 8 9 9 9 8 11 10 13 12 11 8 4 10 5 13 13 13 13 19 8 9 10 10 10 9 8 8 7 8 5 6 7 7 7 6 5 5 4 3 3
8 9 8 8 8 8 10 9 10 9 9 12 19 13 11 10 10 13 16 17 20 17 5 7 7 8 7 7 7 8 6 6 7 6 6 6 6 6 7 5 4 4 3
6 5 6 7 7 8 8 8 8 8 8 8 13 20 17 12 6 3 12 12 9 2 3 5 5 6 7 7 7 7 7 6 6 6 7 6 6 6 6 5 4 4 3
7 7 6 5 6 6 6 7 8 8 8 8 8 11 14 19 22 21 16 7 7 6 5 6 5 5 5 6 7 7 7 6 7 7 6 6 5 5 6 5 4 3 3
7 8 6 6 6 7 7 7 7 8 9 9 9 9 8 10 9 8 9 8 8 8 7 7 7 7 7 7 7 7 6 7 6 6 6 6 6 5 6 5 4 4 2
4 6 7 6 6 6 6 7 7 7 7 8 9 10 17 10 9 9 8 8 8 7 7 7 7 7 7 6 6 6 6 7 6 7 6 6 6 6 5 5 4 4 3
5 5 5 5 5 6 5 5 6 6 7 7 7 9 17 9 8 8 8 8 8 8 7 7 7 6 5 5 6 6 6 6 6 6 6 6 6 6 5 5 4 3 3
3 3 3 3 3 3 4 5 5 6 6 6 6 7 8 8 8 8 7 7 6 7 6 6 6 6 6 6 6 4 5 5 5 5 6 6 6 5 4 4 4 3 3
3 3 3 3 3 3 4 4 5 6 6 6 6 6 6 6 6 7 6 5 6 6 6 7 6 7 6 5 4 5 5 5 4 4 6 6 6 5 4 4 3 3 2
4 3 3 3 3 3 2 3 5 5 5 5 5 5 5 5 6 6 5 5 5 6 6 5 5 6 7 7 6 5 5 6 4 5 4 5 6 6 4 2 2 3 4
2 3 3 3 3 3 2 2 4 4 4 4 4 5 5 5 5 5 5 5 5 5 5 4 5 6 5 4 3 4 5 6 6 6 4 4 4 3 3 4 4 4 4
Wind_Direction
208 209 215 215 213 216 214 209 207 204 202 201 199 202 205 203 203 203 210 208 209 212 205 202 203 176 188 191 183 201 209 168 182 97 158 146 169 189 190 203 205 211 218
212 208 213 215 213 213 216 210 208 209 205 206 204 206 207 206 204 205 209 208 209 209 199 195 199 180 192 177 178 199 193 178 163 149 164 160 157 197 197 200 212 218 225
214 207 210 214 215 216 219 217 213 210 209 212 209 209 208 208 207 211 214 210 209 208 200 196 196 178 181 168 183 197 180 165 161 142 146 139 115 177 190 208 220 225 223
220 206 208 212 215 217 221 215 213 213 210 207 210 214 213 214 214 212 212 214 211 214 199 199 180 178 179 178 185 189 165 162 158 152 144 145 146 149 203 193 211 218 230
28 23 336 258 223 216 218 215 210 211 220 215 212 218 221 215 214 217 213 201 197 203 196 195 177 181 183 189 174 177 164 165 166 164 146 153 165 160 201 175 208 177 214
36 33 22 15 22 358 287 223 208 211 216 216 210 212 216 220 208 195 194 199 191 187 190 186 205 159 178 180 191 177 178 169 183 174 164 188 178 161 169 183 169 173 219
24 20 15 2 13 8 358 355 351 317 309 253 236 223 225 224 203 201 198 198 190 191 192 180 176 173 169 178 188 173 181 186 186 183 181 188 165 164 154 177 191 171 182
18 13 6 349 344 350 9 358 343 332 288 241 224 213 211 223 200 200 189 185 183 199 198 186 177 170 172 168 171 166 167 179 173 187 189 163 140 152 167 166 164 135 97
2 358 349 345 337 333 0 357 349 324 303 286 293 241 216 243 211 195 172 178 184 193 175 182 173 170 172 166 174 164 159 169 169 175 157 138 153 151 154 126 150 166 178
351 338 334 338 337 338 349 345 334 277 293 286 287 258 221 251 214 205 175 171 187 168 171 154 167 166 167 174 171 167 175 183 158 159 147 149 159 163 173 142 153 179 141
336 329 332 336 331 322 324 330 314 309 287 265 257 261 235 236 216 192 183 175 176 184 171 163 176 177 174 178 180 176 179 150 165 155 136 126 146 154 158 174 179 164 157
335 344 346 346 343 339 337 326 285 260 264 283 304 308 301 289 247 213 193 183 177 173 177 160 185 175 177 181 172 173 151 140 142 146 144 165 161 176 176 170 161 159 89
342 349 348 347 350 345 338 333 321 303 294 290 254 257 247 194 229 219 195 187 179 167 169 163 163 177 166 178 168 169 146 138 148 156 165 162 163 149 129 118 107 112 107
346 351 349 350 349 346 338 336 333 331 317 292 278 274 259 231 225 193 201 201 187 145 140 144 152 155 160 159 155 153 143 150 161 156 156 131 124 138 146 146 155 154 162
346 351 356 351 351 345 344 332 323 310 299 301 288 260 264 257 229 195 180 190 186 167 134 136 154 156 155 159 164 152 142 151 160 148 142 145 144 150 145 152 131 135 171
352 357 356 350 350 349 344 337 335 319 332 334 322 290 268 259 256 206 199 179 164 152 148 164 162 164 167 164 167 156 151 153 145 142 140 143 144 153 146 147 134 149 164
352 355 353 358 350 345 347 347 343 345 336 1 4 339 323 288 271 221 203 170 162 154 168 166 161 158 158 168 158 146 134 128 125 129 136 139 141 134 143 141 145 152 164
343 353 359 355 353 355 353 351 352 355 360 2 15 27 18 5 345 216 158 136 148 96 111 138 151 149 152 141 129 119 113 110 110 116 117 121 130 138 135 139 149 157 166
358 1 352 2 10 6 9 14 15 16 18 14 0 15 10 41 45 48 61 72 83 71 72 73 72 83 90 96 100 102 105 110 115 115 114 115 119 122 116 117 105 106 139
1 357 352 3 10 18 22 24 28 29 28 21 18 14 4 26 34 35 36 46 59 62 59 65 63 67 69 74 76 85 101 103 108 109 108 104 99 106 116 119 130 140 113
345 3 353 10 18 19 25 33 35 39 39 35 28 28 53 58 39 28 35 38 47 59 66 70 67 67 68 75 93 98 99 105 105 109 112 113 121 119 110 110 118 108 118
352 359 6 15 15 24 26 33 38 47 46 45 48 33 45 47 53 53 49 41 40 44 42 58 66 63 61 74 86 100 107 114 120 117 118 120 117 114 119 119 122 130 149
350 355 7 13 30 46 46 39 44 51 54 51 47 54 45 54 52 50 49 45 46 52 48 64 78 76 66 62 59 81 110 113 112 125 134 126 121 122 134 135 143 168 181
352 5 16 23 26 47 55 64 69 59 61 61 56 54 63 68 72 68 64 62 66 68 66 65 65 79 82 79 77 73 85 98 114 126 129 132 128 140 146 149 169 193 221
352 4 20 17 20 46 63 66 73 69 66 71 79 72 62 62 68 67 63 67 67 70 68 74 78 84 82 85 90 100 119 123 133 136 126 129 145 153 165 175 197 228 227
25 19 13 10 24 25 37 64 82 88 84 77 78 89 91 86 78 74 73 70 63 60 66 66 77 82 89 90 96 123 161 174 170 169 153 167 163 180 194 224 234 244 257